ROMMA est une association bénévole à but non lucratif. Votre soutien est indispensable : ADHERER à ROMMA ou FAIRE un DON

Crempigny - (74, Haute-Savoie)

Albanais-Montagne des Princes (500 m)   Longitude: 05° 54' 5" E   Latitude: 45° 57' 0" N Station partenaire n°10
 

Détail journalier du     <<     >>

Température Precipitation Humidité Pression Vent Dir Rafale Dir. rafale Ensol.
Heure (°C) (mm) (%) (hPa) (km/h) (km/h) (min)
01:00 17.506410122SSE6N0
02:00 16.406710113N6N0
03:00 15.707310113N6N0
04:00 15.307810112N5N0
05:00 14.408210102N5N0
06:00 13.808510102N5N0
07:00 14.208410101N5N0
08:00 14.208610101N5N0
09:00 16.307810091N3N40
10:00 18.107610093SO8SO60
11:00 20.206910082SO10SE50
12:00 22.206510074ESE10SE50
13:00 24.205510076S19OSO60
14:00 22.6060100511ESE35S50
15:00 21.9059100523SO48OSO0
16:00 23.205210059ENE27SSE20
17:00 22.9049100410SSO29SSO40
18:00 22.205810039S24S50
19:00 20.7057100310SO48SO0
20:00 15.75.68610048NE63OSO0
21:00 14.012.29310058N44O0
22:00 13.93.29610045OSO32SO0
23:00 13.70.29710041OSO5OSO0
minuit 13.709710031OSO5OSO0

Graphique du 03-06-2020

 

Serveur OMMA